GSAT-29

Last updated on Sat Jul 05 2025 00:02:47 GMT+0000 (Coordinated Universal Time)

1 43698U 18089A 25185.57632574 .00000099 00000+0 00000+0 0 9992 2 43698 0.0601 267.3865 0003155 172.1616 105.8174 1.00268972 24315
UTC large
Height (km)
Speed (km/s)
/
Latitude / Longitude
Inclination (degrees)
Orbital Period (minutes)
Azimuth
Elevation
Range (km)
Doppler Factor

Next 0 passes for location: London (51.5072 / 0.1276)

Sorry there are no passes over London.